Location: Unspecified
(0.0000°N, 0.0000°E)
Time: 06:27:13
(UTC+00:00)

Courier 1B - Visible Passes

Search period start: 24 September 2023 00:00
Search period end: 04 October 2023 00:00
Orbit: 962 x 1209 km, 28.3° (Epoch: 23 September)

Date Brightness Start Highest point End Pass type
(mag) Time Alt. Az. Time Alt. Az. Time Alt. Az.
24 Sep 9.7 18:29:16 10° N 18:30:39 11° NNE 18:32:02 10° NNE visible
24 Sep 9.5 20:19:41 10° NNW 20:22:19 20° NNW 20:22:19 20° NNW visible
25 Sep 9.0 19:26:11 10° NNW 19:31:53 24° NNE 19:32:04 24° NNE visible
26 Sep 9.4 18:32:50 10° NNW 18:37:43 18° NNE 18:41:52 11° ENE visible
26 Sep 9.1 20:25:20 10° NW 20:28:47 29° NW 20:28:47 29° NW visible
27 Sep 8.2 19:31:34 10° NW 19:38:31 41° NNE 19:38:39 41° NNE visible
28 Sep 8.7 18:37:55 10° NNW 18:44:27 31° NNE 18:48:35 18° ENE visible
28 Sep 9.0 20:31:29 10° WNW 20:35:30 35° WNW 20:35:30 35° WNW visible
29 Sep 7.6 19:37:25 10° NW 19:44:58 74° NNE 19:45:31 70° ENE visible
30 Sep 9.7 05:18:27 10° SSW 05:22:34 17° SSE 05:26:46 10° ESE visible
30 Sep 8.0 18:43:31 10° NW 18:50:59 54° NNE 18:55:35 23° E visible
30 Sep 9.1 20:38:13 10° WNW 20:42:31 33° W 20:42:31 33° W visible
01 Oct 9.9 04:26:07 10° S 04:28:29 12° SSE 04:30:52 10° SE visible
01 Oct 8.0 19:43:49 10° WNW 19:51:20 65° SSW 19:52:38 55° SSE visible
02 Oct 9.2 05:23:35 10° SSW 05:29:12 30° SSE 05:35:01 10° E visible
02 Oct 7.8 18:49:36 10° WNW 18:57:22 87° SSW 19:02:48 20° ESE visible
02 Oct 9.6 20:45:41 10° W 20:49:44 24° SW 20:49:44 24° SW visible
03 Oct 9.5 04:30:29 10° SSW 04:35:18 21° SSE 04:40:12 10° ESE visible
03 Oct 8.9 19:50:50 10° W 19:57:44 37° SSW 19:59:54 31° S visible
